Regional Weather Roundup
Issued by NWS

Home | Current Version | Previous Version | Graphics & Text | Print | Product List | Glossary On
Versions: 1 2 3 4 5 6 7 8 9 10 11 12 13 14 15 16 17 18 19 20 21 22 23 24 25 26 27 28 29 30 31 32 33 34 35 36 37 38 39 40 41 42 43 44 45 46 47 48 49 50
125
ASUS43 KLMK 221102
RWRKY
KENTUCKY REGIONAL WEATHER ROUNDUP
NATIONAL WEATHER SERVICE LOUISVILLE KY
600 AM EST SUN JAN 22 2017

NOTE "FAIR" INDICATES FEW OR NO CLOUDS BELOW 12,000 FEET
WITH NO SIGNIFICANT WEATHER AND/OR OBSTRUCTIONS TO VISIBILITY.

KYZ001>023-026-027-061>063-070>075-221200-
WESTERN AND SOUTH CENTRAL KENTUCKY

CITY           SKY/WX    TMP DP  RH WIND       PRES   REMARKS
PADUCAH        CLOUDY    52  47  83 N3        29.46S
HENDERSON      CLOUDY    48  45  87 E5        29.50S
OWENSBORO      CLOUDY    52  48  86 E6        29.51S
HOPKINSVILLE   NOT AVBL
BOWLING GREEN  CLOUDY    51  47  86 CALM      29.50F
GLASGOW        NOT AVBL
$$

KYZ024-025-028>034-038-045-046-053-221200-
NORTH CENTRAL KENTUCKY

CITY           SKY/WX    TMP DP  RH WIND       PRES   REMARKS
LOUISVILLE/SDF CLOUDY    49  46  90 CALM      29.54R
LOUISVILLE/LOU CLOUDY    51  47  86 CALM      29.55R
FORT KNOX      NOT AVBL
$$

KYZ035>037-039>044-047>052-055>060-089>105-221200-
NORTHEAST KENTUCKY

CITY           SKY/WX    TMP DP  RH WIND       PRES   REMARKS
LEXINGTON      CLOUDY    50  47  89 E6        29.57R
COVINGTON      MOCLDY    49  48  97 E6        29.57R
FRANKFORT      CLOUDY    46  43  89 E3        29.55R
$$

KYZ054-064>069-076>088-106>120-221200-
SOUTHEAST KENTUCKY

CITY           SKY/WX    TMP DP  RH WIND       PRES   REMARKS
JACKSON        CLOUDY    50  48  93 E3        29.58R
LONDON         CLOUDY    44  43  96 CALM      29.56F
SOMERSET       NOT AVBL
MIDDLESBORO    CLOUDY    43  43 100 CALM      29.58F
MONTICELLO     CLOUDY    47  47 100 VRB6      29.55F
$$





USA.gov is the U.S. government's official web portal to all federal, state and local government web resources and services.